Regional Weather Roundup
Issued by NWS

Home | Current Version | Previous Version | Graphics & Text | Print | Product List | Glossary Off
Versions: 1 2 3 4 5 6 7 8 9 10 11 12 13 14 15 16 17 18 19 20 21 22 23 24 25 26 27 28 29 30 31 32 33 34 35 36 37 38 39 40 41 42 43 44 45 46 47 48 49 50

000
ASUS45 KPSR 040610
RWRAZ

ARIZONA REGIONAL HOURLY WEATHER ROUNDUP
NATIONAL WEATHER SERVICE PHOENIX AZ
1100 PM MST SUN MAY 03 2015

NOTE: FAIR INDICATES FEW OR NO CLOUDS BELOW 12,000 FEET WITH NO
SIGNIFICANT WEATHER AND/OR OBSTRUCTIONS TO VISIBILITY.

AZZ001>003-036-040700-
NORTHWEST ARIZONA

CITY           SKY/WX    TMP DP  RH WIND       PRES   REMARKS
BULLHEAD CITY  CLEAR     84  37  18 S8        29.72S
KINGMAN        CLEAR     62  35  36 NE7       29.88R
6HR MIN TEMP:  61; 6HR MAX TEMP:  82;

$$

AZZ004>008-015-016-018-040700-
NORTH CENTRAL ARIZONA

CITY           SKY/WX    TMP DP  RH WIND       PRES   REMARKS
GRAND CANYON   PTCLDY    39  36  89 CALM      30.07R
6HR MIN TEMP:  38; 6HR MAX TEMP:  55; 6HR PCP: TRACE;

WILLIAMS       CLEAR     45  37  76 SE9       30.12F
PRESCOTT       CLEAR     58  37  45 W8        29.98S
6HR MIN TEMP:  58; 6HR MAX TEMP:  73;

FLAGSTAFF      CLEAR     41  35  79 CALM      30.09F
6HR MIN TEMP:  40; 6HR MAX TEMP:  63;

PAYSON         PTCLDY    61  36  39 NE6       29.99S
PAGE           MOCLDY    64  39  39 CALM      29.95S
6HR MIN TEMP:  63; 6HR MAX TEMP:  75;

$$

AZZ009>014-017-040700-
NORTHEAST ARIZONA

CITY           SKY/WX    TMP DP  RH WIND       PRES   REMARKS
WINSLOW        PTCLDY    55  40  56 S8        30.02R
6HR MIN TEMP:  55; 6HR MAX TEMP:  76; 6HR PCP: TRACE;

SAINT JOHNS    MOCLDY    57  39  51 NW8       30.02S
6HR MIN TEMP:  57; 6HR MAX TEMP:  69; 6HR PCP: TRACE;

WINDOW ROCK    CLOUDY    52  39  61 NE6       30.09F
6HR MIN TEMP:  48; 6HR MAX TEMP:  60;

SHOW LOW       MOCLDY    48  39  71 NW5       30.09R
$$

AZZ023-040700-
GREATER PHOENIX AREA

CITY           SKY/WX    TMP DP  RH WIND       PRES   REMARKS
PHOENIX        MOCLDY    82  49  31 SW12      29.77R
6HR MIN TEMP:  82; 6HR MAX TEMP:  94;

LUKE AFB       PTCLDY    80  49  33 SW20G25   29.75
6HR MIN TEMP:  80; 6HR MAX TEMP:  92;

DEER VALLEY    PTCLDY    79  46  31 S13G20    29.79R
6HR MIN TEMP:  79; 6HR MAX TEMP:  90;

SCOTTSDALE     MOCLDY    80  44  27 VRB5      29.80F
6HR MIN TEMP:  78; 6HR MAX TEMP:  91; 6HR PCP: TRACE;

MESA-GATEWAY   PTCLDY    77  46  33 N5        29.80R
$$

AZZ027-028-040700-
SOUTHWEST MARICOPA COUNTY AND PINAL COUNTY

CITY           SKY/WX    TMP DP  RH WIND       PRES   REMARKS
CASA GRANDE    PTCLDY    77  48  36 W9        29.80R
6HR MIN TEMP:  77; 6HR MAX TEMP:  91;

GILA BEND      FAIR      77  51  39 SW13      29.79R
6HR MIN TEMP:  77; 6HR MAX TEMP:  93;

$$

AZZ503-504-507>509-040700-
SOUTHEAST ARIZONA

CITY           SKY/WX    TMP DP  RH WIND       PRES   REMARKS
TUCSON         MOCLDY    74  51  44 W9        29.89R
6HR MIN TEMP:  74; 6HR MAX TEMP:  89; 6HR PCP: TRACE;

NOGALES        CLEAR     64  41  42 CALM      29.95S
6HR MIN TEMP:  64; 6HR MAX TEMP:  81;

SIERRA VISTA   PTCLDY    67  40  36 SW16      29.98R
6HR MIN TEMP:  67; 6HR MAX TEMP:  78;

DOUGLAS        PTCLDY    62  38  40 E6        29.95S
6HR MIN TEMP:  62; 6HR MAX TEMP:  80;

SAFFORD        MOCLDY    73  37  27 NW8       29.83S
6HR MIN TEMP:  70; 6HR MAX TEMP:  88;

$$

AZZ020-021-025-026-031-040700-
SOUTHWEST ARIZONA

CITY           SKY/WX    TMP DP  RH WIND       PRES   REMARKS
YUMA           CLEAR     75  53  46 S6        29.76R
6HR MIN TEMP:  75; 6HR MAX TEMP:  92;

$$

CAZ031-033-041-043-047-048-061-040700-
SOUTHERN CALIFORNIA

CITY           SKY/WX    TMP DP  RH WIND       PRES   REMARKS
DOWNTOWN L.A.  CLEAR     59  51  75 CALM      29.89R
6HR MIN TEMP:  59; 6HR MAX TEMP:  66;

L.A. AIRPORT   PTCLDY    57  52  83 SW7       29.90R
6HR MIN TEMP:  57; 6HR MAX TEMP:  61;

SAN DIEGO      MOCLDY    63  53  70 SW6       29.95R
6HR MIN TEMP:  63; 6HR MAX TEMP:  67;

BURBANK        CLEAR     60  49  66 S5        29.89R
6HR MIN TEMP:  60; 6HR MAX TEMP:  70;

ONTARIO        CLEAR     58  47  66 W8        29.90R
6HR MIN TEMP:  58; 6HR MAX TEMP:  75;

RIVERSIDE      CLEAR     59  49  69 W6        29.91R
6HR MIN TEMP:  59; 6HR MAX TEMP:  74;

PALM SPRINGS   CLEAR     78  46  32 NW13      29.78R
6HR MIN TEMP:  78; 6HR MAX TEMP:  93;

EL CENTRO NAS  CLEAR     74  50  42 W5        29.74S
6HR MIN TEMP:  74; 6HR MAX TEMP:  93; 6HR PCP: TRACE;

IMPERIAL       CLEAR     75  54  47 NE3       29.73R
6HR MIN TEMP:  75; 6HR MAX TEMP:  93;

BLYTHE         CLEAR     80  51  36 S12       29.74R
6HR MIN TEMP:  80; 6HR MAX TEMP:  91;

NEEDLES        CLEAR     84  40  21 SW13      29.73R
6HR MIN TEMP:  83; 6HR MAX TEMP:  94;

$$

NVZ020-UTZ003-040700-
SOUTHERN NEVADA-UTAH

CITY           SKY/WX    TMP DP  RH WIND       PRES   REMARKS
LAS VEGAS      PTCLDY    78  26  14 S8        29.73R
6HR MIN TEMP:  78; 6HR MAX TEMP:  90;

SALT LAKE CITY CLOUDY    68  39  34 S10       29.92R
6HR MIN TEMP:  64; 6HR MAX TEMP:  79;

$$

NMZ009-TXZ055-040700-
NEW MEXICO-WEST TEXAS

CITY           SKY/WX    TMP DP  RH WIND       PRES   REMARKS
ALBUQUERQUE    MOCLDY    62  36  37 W6        30.01R
6HR MIN TEMP:  62; 6HR MAX TEMP:  72;

EL PASO        LGT RAIN  73  44  35 NW7       29.90R
6HR MIN TEMP:  71; 6HR MAX TEMP:  86; 6HR PCP: TRACE;

$$


........................KEY........................
SKY/WX - SKY CONDITION/WEATHER
TMP    - TEMPERATURE IN FAHRENHEIT
DP     - DEW POINT IN FAHRENHEIT
RH     - RELATIVE HUMIDITY IN PERCENT
WIND   - DIRECTION AND SPEED IN MILES PER HOUR (MPH)
VRB    - VARIABLE WIND DIRECTION
PRES   - MEAN SEA LEVEL PRESSURE IN INCHES OF MERCURY
         F - FALLING PRESSURE   R - RISING PRESSURE
         S - STEADY PRESSURE
VSB    - VISIBILITY IN MILES
HX     - HEAT INDEX IN FAHRENHEIT
WCI    - WIND CHILL INDEX IN FAHRENHEIT
TC     - TEMPERATURE IN CELSIUS WHICH IS ALSO KNOWN AS
         TEMPERATURE IN CENTIGRADE
AFB    - AIR FORCE BASE
         LUKE AFB IS LUKE AIR FORCE BASE
         DAVIS-MONTHAN IS DAVIS-MONTHAN AIR FORCE BASE
NAS    - NAVAL AIR STATION
         EL CENTRO NAS IS EL CENTRO NAVAL AIR STATION
N/A    - NOT AVAILABLE




USA.gov is the U.S. government's official web portal to all federal, state and local government web resources and services.